カタログに戻る

SALSAT

運用中アマチュア無線PO
NORAD 46495·PAYLOAD·🇩🇪 Germany

打ち上げ Sep 28, 2020 から Plesetsk Cosmodrome

Loading…

次のパス (今後24時間)

TLE

最新Source: AMSAT

元期: Sep 14, 2026, 06:22 UTC

1 46495U 20068K   26257.26571775  .00005740  00000-0  19484-3 0  9991
2 46495  97.8883 265.8489 0009221   1.1573 358.9687 15.30910957328982

AllMySatでSALSATをリアルタイム追跡

Download on the App Store